Weather History for PANC - February, 2013

Change the Weather History Date:

Monday, February 18, 2013

  Actual Average Record
Temperature  
Mean Temperature 14 °F 21 °F  
Max Temperature 19 °F 27 °F 44 °F (1988)
Min Temperature 8 °F 14 °F -20 °F (1954)
Degree Days  
Heating Degree Days 51    
Month to date heating degree days 704  
Since 1 July heating degree days 7024  
Cooling Degree Days 0    
Month to date cooling degree days 0  
Year to date cooling degree days 0  
Moisture  
Dew Point -1 °F    
Average Humidity 55    
Maximum Humidity 66    
Minimum Humidity 43    
Precipitation  
Precipitation 0.00 in 0.03 in 0.48 in (2011)
Month to date precipitation 1.05 0.49  
Year to date precipitation 2.27 1.22  
Snow  
Snow 0.00 in 0.50 in 6.20 in (1967)
Month to date snowfall 12.7 7.4  
Since 1 July snowfall 52.3 56.8  
Snow Depth 18.00 in    
Sea Level Pressure  
Sea Level Pressure 29.87 in    
Wind  
Wind Speed 8 mph (North)    
Max Wind Speed 16 mph    
Max Gust Speed 24 mph    
Visibility 10 miles    
Events      
T = Trace of Precipitation, MM = Missing Value Source: NWS Daily Summary

Daily Weather History Graph

Daily Weather History Graph

Search for Another Location

Airport or City:

Trip Planner

Search our weather history database for the weather conditions in past years. The results will help you decide how hot, cold, wet, or windy it might be!

Date:

Astronomy

Feb. 18, 2013 Rise Set
Actual Time 8:32 AM AKST 5:56 PM AKST
Civil Twilight 7:47 AM AKST 6:41 PM AKST
Nautical Twilight 6:57 AM AKST 7:32 PM AKST
Astronomical Twilight 6:07 AM AKST 8:22 PM AKST
Moon 10:54 AM AKST (2/18) 4:15 AM AKST (2/18)
Length of Visible Light 10h 54m
Length of Day
9h 24m
First Quarter, 60% of the Moon is Illuminated
Feb 18
First Quarter
Feb 25
Full
Mar 4
Last Quarter
Mar 11
New
Mar 19
First Quarter

Hourly Weather History & Observations

Time (AKST) Temp. Windchill Dew Point Humidity Pressure Visibility Wind Dir Wind Speed Gust Speed Precip Events Conditions
12:53 AM 17.1 °F 3.0 °F -0.0 °F 47% 29.81 in 9.0 mi NNE 13.8 mph 21.9 mph 0.00 in   Overcast
1:53 AM 17.1 °F 5.0 °F -2.0 °F 43% 29.83 in 10.0 mi North 10.4 mph - N/A   Overcast
3:53 AM 16.0 °F 4.4 °F -2.0 °F 45% 29.84 in 10.0 mi North 9.2 mph 19.6 mph N/A   Mostly Cloudy
4:53 AM 16.0 °F 2.3 °F -2.9 °F 43% 29.85 in 10.0 mi North 12.7 mph - N/A   Mostly Cloudy
5:53 AM 17.1 °F 5.0 °F -2.9 °F 41% 29.86 in 10.0 mi North 10.4 mph - N/A   Mostly Cloudy
6:53 AM 16.0 °F 2.9 °F -2.9 °F 43% 29.87 in 10.0 mi North 11.5 mph - N/A   Overcast
7:51 AM 15.8 °F 2.7 °F -0.4 °F 49% 29.86 in 10.0 mi North 11.5 mph - N/A   Overcast
7:53 AM 16.0 °F 2.9 °F -0.9 °F 47% 29.87 in 10.0 mi North 11.5 mph - N/A   Overcast
8:53 AM 15.1 °F 2.5 °F -0.9 °F 49% 29.88 in 10.0 mi North 10.4 mph - N/A   Mostly Cloudy
9:53 AM 15.1 °F 3.3 °F -2.0 °F 47% 29.88 in 10.0 mi North 9.2 mph - N/A   Mostly Cloudy
10:20 AM 15.8 °F 4.2 °F -2.2 °F 45% 29.87 in 10.0 mi North 9.2 mph - N/A   Scattered Clouds
10:53 AM 16.0 °F 2.9 °F -2.0 °F 45% 29.89 in 10.0 mi North 11.5 mph 19.6 mph N/A   Scattered Clouds
11:53 AM 17.1 °F 6.6 °F -0.0 °F 47% 29.90 in 10.0 mi North 8.1 mph - N/A   Scattered Clouds
12:53 PM 18.0 °F 6.9 °F 1.0 °F 48% 29.91 in 10.0 mi NNW 9.2 mph - N/A   Scattered Clouds
1:53 PM 18.0 °F 9.8 °F 3.0 °F 52% 29.90 in 10.0 mi NNW 5.8 mph - N/A   Scattered Clouds
2:53 PM 19.9 °F 13.4 °F 3.9 °F 50% 29.90 in 10.0 mi North 4.6 mph - N/A   Scattered Clouds
3:53 PM 19.0 °F 11.1 °F 6.1 °F 57% 29.90 in 10.0 mi NNE 5.8 mph - N/A   Scattered Clouds
4:53 PM 17.1 °F 11.7 °F 3.9 °F 56% 29.88 in 10.0 mi NE 3.5 mph - N/A   Mostly Cloudy
5:53 PM 15.1 °F 9.4 °F 3.0 °F 59% 29.88 in 10.0 mi ENE 3.5 mph - N/A   Mostly Cloudy
6:53 PM 10.0 °F - 1.9 °F 70% 29.88 in 10.0 mi Calm Calm - N/A   Scattered Clouds
7:53 PM 15.1 °F 6.4 °F -2.0 °F 47% 29.89 in 10.0 mi North 5.8 mph - N/A   Scattered Clouds
8:53 PM 14.0 °F 2.9 °F -2.0 °F 49% 29.86 in 10.0 mi NNE 8.1 mph - N/A   Scattered Clouds
9:53 PM 14.0 °F 3.9 °F -2.9 °F 47% 29.87 in 10.0 mi North 6.9 mph - N/A   Mostly Cloudy
10:38 PM 12.2 °F -0.2 °F -4.0 °F 48% 29.88 in 10.0 mi North 9.2 mph - N/A   Mostly Cloudy
10:53 PM 12.9 °F 2.6 °F -2.9 °F 49% 29.88 in 10.0 mi NNE 6.9 mph - N/A   Overcast
11:53 PM 10.9 °F 0.2 °F -4.0 °F 51% 29.86 in 10.0 mi North 6.9 mph - N/A   Overcast